sat.trackr.live / text

‹ back to catalog

2024-018A

NORAD 58849 · 2024-018A

PAYLOAD ACTIVE UNKNOWN

§ Identity

Operator
Country
IRAN
Launch date
2024-01-28
Launch site
SEMLS
Launch vehicle
Mass (kg)
RCS (m²)

External: N2YO · Heavens-Above · Gunter

§ Orbital elements

Epoch: 2026-05-25T04:29:21.805152Z

Period
100.04 min
Inclination
58.6867°
Eccentricity
0.0437674
Mean motion
14.39404997 rev/d
Perigee alt
448.0 km
Apogee alt
1,072.9 km
Semi-major
7,138.6 km
B*
2.5948e-4
RAAN
310.4211°
Arg perigee
78.8590°
Mean anomaly
286.1305°
Rev number
12,186

§ Raw data

2024-018A1 58849U 24018A   26145.18705793  .00002313  00000+0  25948-3 0  99962 58849  58.6867 310.4211 0437674  78.8590 286.1305 14.39404997121869

JSON: /api/v1/satellites/58849 · /tle

For live sub-satellite position, see the globe view (requires WebGL).

§ Visibility from observer

Set your observer location to see the next 7 days of passes ≥ 10°. The values pass through the URL so the page stays shareable.

No JS? Fill the form by hand. The geolocation button needs JavaScript.

§ Radio — SatNOGS DB

ModeDescriptionDownlinkUplink
FM S-band telemetry 2.221 GHz

1 transmitter · refreshed weekly from db.satnogs.org